Location: Aufkirchen
(47.9603°N, 11.3653°E)
Time: 13:47:53
(UTC+01:00)

Transit 2A Rocket - Pass Details

Date: 11 December 2020
Orbit: 592 x 910 km, 66.7° (Epoch: 21 January)

Event Time Altitude Azimuth Distance (km) Brightness Sun altitude
Rises 06:20:12 0° 328° (NNW) 3,166 - -14.9°
Exits shadow 06:22:40 - 339° (NNW) 2,301 7.1 -14.5°
Reaches altitude 10° 06:23:02 10° 342° (NNW) 2,181 7.0 -14.5°
Maximum altitude 06:27:08 26° 38° (NE) 1,326 6.4 -13.8°
Drops below altitude 10° 06:30:57 10° 95° (E) 2,024 8.5 -13.2°
Sets 06:33:28 0° 109° (ESE) 2,890 10.1 -12.8°
